Brightest
NORAD ID: 25860
Int'l Code: 1999-039A
Perigee: 652.8 km
Apogee: 654.4 km
Inclination: 98.0 °
Period: 97.7 minutes
Semi major axis: 7024 km
Launch date: July 17, 1999
Source: Commonwealth of Independent States (former USSR) (CIS)
Two Line Element Set (TLE):
1 25860U 99039A 13142.80223794 .00000532 00000-0 87322-4 0 9511
2 25860 097.9878 105.5953 0001187 133.4484 286.0307 14.74591113744617
Source:
NASA's NSSDC Master Catalog entry for OKEAN O